Regional Weather Roundup
Issued by NWS Cleveland, OH

Home | Current Version | Previous Version | Graphics & Text | Print | Product List | Glossary On
Versions: 1 2 3 4 5 6 7 8 9 10 11 12 13 14 15 16 17 18 19 20 21 22 23 24 25 26 27 28 29 30 31 32 33 34 35 36 37 38 39 40 41 42 43 44 45 46 47 48 49 50
000
ASUS41 KCLE 232310
RWRCLE
OHIO REGIONAL WEATHER ROUNDUP
NATIONAL WEATHER SERVICE WILMINGTON, OH
700 PM EDT TUE SEP 23 2014

NOTE: "FAIR" INDICATES FEW OR NO CLOUDS BELOW 12,000 FEET WITH NO
SIGNIFICANT WEATHER AND/OR OBSTRUCTIONS TO VISIBILITY.

OHZ001>008-015>018-024>027-034-035-043-044-240000-
   NORTHWEST OHIO

CITY           SKY/WX    TMP DP  RH WIND       PRES   REMARKS
DEFIANCE       CLEAR    N/A N/A N/A CALM      30.31S
FINDLAY        CLEAR     71  44  37 CALM      30.30S
TOLEDO EXPRESS CLEAR     67  49  52 CALM      30.32R
TOLEDO METCALF CLEAR     66  50  56 NE7       30.33R
LIMA           CLEAR     70  49  47 CALM      30.31S
$$

OHZ009>014-019>023-028>033-038-089-240000-
   NORTHEAST OHIO

CITY           SKY/WX    TMP DP  RH WIND       PRES   REMARKS
CLE-HOPKINS    CLEAR     62  50  64 N8        30.36R
CLE-LAKEFRONT  CLEAR     62  51  67 NE8       30.34S
CUY CO. ARPT   CLEAR     63  54  72 NE8       30.36R
LORAIN-ELYRIA  CLEAR     64  51  62 NE7       30.35R
ASHTABULA      CLEAR     61  52  72 CALM      30.37S
AKRON-CANTON   CLEAR     64  45  49 NE3       30.34S
WOOSTER        CLEAR     64  48  56 NE3       30.34S
MANSFIELD      CLEAR     65  46  50 E3        30.33S
YOUNGSTOWN     CLEAR     64  48  56 NE5       30.34F
$$

OHZ042-051>053-060>062-070>072-077>081-240000-
  SOUTHWEST OHIO

CITY           SKY/WX    TMP DP  RH WIND       PRES   REMARKS
CINC-COVINGTON CLEAR     70  42  36 E3        30.28S
CINC-LUNKEN    CLEAR     70  47  43 NE6       30.28S
HAMILTON       CLEAR     69  47  45 NE6       30.29S
DAYTON         CLEAR     69  43  38 E6        30.31R
WRIGHT-PAT AFB CLEAR     70  45  40 N3        30.29S
DAYTON GENERAL CLEAR     69  46  43 CALM      30.29S
WILMINGTON     CLEAR     66  42  41 NE6       30.29S
$$

OHZ036-037-039>041-045>050-054>059-063>069-073>076-082>088-240000-
  CENTRAL AND SOUTHEAST OHIO

CITY           SKY/WX    TMP DP  RH WIND       PRES   REMARKS
COLUMBUS       CLEAR     70  40  33 E6        30.30S
OSU AIRPORT    CLEAR     66  45  46 N6        30.31R
BOLTON FIELD   NOT AVBL
RICKENBACK AFB CLEAR     67  43  41 E5        30.30R
NEWARK         CLEAR     67  43  41 NE3       30.31S
MARION         CLEAR     69  43  38 N3        30.31F
LANCASTER      CLEAR     68  43  40 NE6       30.31S
ZANESVILLE     CLEAR     68  42  38 NE3       30.31S
NEW PHILLY     CLEAR     66  46  48 NE3       30.34R
$$



USA.gov is the U.S. government's official web portal to all federal, state and local government web resources and services.